Huntsville Madison, AL

6:42 PM CDT on April 29, 2017 (GMT -0500)
Huntsville Madison

Weather History for KMDQ - September, 2013

Change the Weather History Date:

Thursday, September 12, 2013

  Actual Average (KHSV) Record (KHSV)
Temperature  
Mean Temperature 76 °F -  
Max Temperature 87 °F 84 °F 100 °F (1962)
Min Temperature 66 °F 61 °F 46 °F (1940)
Cooling Degree Days 12    
Growing Degree Days 26 (Base 50)    
Moisture  
Dew Point 64 °F    
Average Humidity 73    
Maximum Humidity 94    
Minimum Humidity 35    
Precipitation  
Precipitation 0.62 in - - ()
Sea Level Pressure  
Sea Level Pressure 30.05 in    
Wind  
Wind Speed 2 mph (WNW)    
Max Wind Speed 14 mph    
Max Gust Speed 24 mph    
Visibility 8 miles    
Events Rain , Thunderstorm    
Averages and records for this station are not official NWS values.
T = Trace of Precipitation, MM = Missing Value Source: NWS Daily Summary

Daily Weather History Graph

Daily Weather History Graph

Search for Another Location

Airport or City:

Trip Planner

Search our weather history database for the weather conditions in past years. The results will help you decide how hot, cold, wet, or windy it might be!

Date:

Astronomy

Sep. 12, 2013 Rise Set
Actual Time 6:27 AM CDT 6:56 PM CDT
Civil Twilight 6:01 AM CDT 7:22 PM CDT
Nautical Twilight 5:31 AM CDT 7:52 PM CDT
Astronomical Twilight 5:01 AM CDT 8:22 PM CDT
Moon 1:38 PM CDT (9/12) No Moon Set
Length of Visible Light 13h 20m
Length of Day
12h 29m
Waxing Crescent, 50% of the Moon is Illuminated
Sep 12
Waxing Crescent
Sep 12
First Quarter
Sep 19
Full
Sep 26
Last Quarter
Oct 4
New

Hourly Weather History & Observations

Time (CDT) Temp. Heat Index Dew Point Humidity Pressure Visibility Wind Dir Wind Speed Gust Speed Precip Events Conditions
12:15 AM 69.8 °F - 66.2 °F 88% 30.11 in 5.0 mi Calm Calm - N/A   Clear
12:35 AM 69.8 °F - 66.2 °F 88% 30.11 in 5.0 mi Calm Calm - N/A   Clear
12:55 AM 68.0 °F - 64.4 °F 88% 30.11 in 7.0 mi Calm Calm - N/A   Clear
1:15 AM 68.0 °F - 64.4 °F 88% 30.11 in 7.0 mi Calm Calm - N/A   Clear
1:35 AM 68.0 °F - 64.4 °F 88% 30.10 in 7.0 mi Calm Calm - N/A   Clear
1:55 AM 68.0 °F - 64.4 °F 88% 30.10 in 7.0 mi Calm Calm - N/A   Clear
2:15 AM 68.0 °F - 64.4 °F 88% 30.10 in 5.0 mi Calm Calm - N/A   Clear
2:35 AM 68.0 °F - 64.4 °F 88% 30.10 in 5.0 mi Calm Calm - N/A   Clear
2:55 AM 68.0 °F - 64.4 °F 88% 30.10 in 4.0 mi Calm Calm - N/A   Clear
3:15 AM 68.0 °F - 64.4 °F 88% 30.10 in 5.0 mi Calm Calm - N/A   Scattered Clouds
3:35 AM 68.0 °F - 64.4 °F 88% 30.10 in 5.0 mi Calm Calm - N/A   Scattered Clouds
3:55 AM 68.0 °F - 64.4 °F 88% 30.09 in 5.0 mi Calm Calm - N/A   Clear
4:15 AM 68.0 °F - 64.4 °F 88% 30.10 in 4.0 mi Calm Calm - N/A   Scattered Clouds
4:35 AM 66.2 °F - 62.6 °F 88% 30.10 in 5.0 mi Calm Calm - N/A   Scattered Clouds
4:55 AM 66.2 °F - 64.4 °F 94% 30.10 in 5.0 mi Calm Calm - N/A   Mostly Cloudy
5:15 AM 68.0 °F - 64.4 °F 88% 30.10 in 5.0 mi Calm Calm - N/A   Mostly Cloudy
5:35 AM 68.0 °F - 64.4 °F 88% 30.10 in 4.0 mi Calm Calm - N/A   Scattered Clouds
5:55 AM 68.0 °F - 64.4 °F 88% 30.10 in 5.0 mi Calm Calm - N/A   Clear
6:15 AM 66.2 °F - 64.4 °F 94% 30.10 in 4.0 mi Calm Calm - N/A   Mostly Cloudy
6:35 AM 68.0 °F - 64.4 °F 88% 30.11 in 4.0 mi Calm Calm - N/A   Overcast
6:55 AM 68.0 °F - 64.4 °F 88% 30.11 in 4.0 mi Calm Calm - N/A   Overcast
7:15 AM 68.0 °F - 64.4 °F 88% 30.11 in 4.0 mi Calm Calm - N/A   Mostly Cloudy
7:35 AM 68.0 °F - 66.2 °F 94% 30.11 in 4.0 mi Calm Calm - N/A   Mostly Cloudy
7:55 AM 69.8 °F - 66.2 °F 88% 30.11 in 7.0 mi Calm Calm - N/A   Scattered Clouds
8:15 AM 71.6 °F - 66.2 °F 83% 30.11 in 10.0 mi Calm Calm - N/A   Clear
8:35 AM 73.4 °F - 68.0 °F 83% 30.11 in 7.0 mi Calm Calm - N/A   Clear
8:55 AM 75.2 °F - 66.2 °F 73% 30.11 in 10.0 mi Calm Calm - N/A   Clear
9:15 AM 77.0 °F - 62.6 °F 61% 30.11 in 10.0 mi Calm Calm - N/A   Clear
9:35 AM 78.8 °F - 62.6 °F 57% 30.11 in 10.0 mi SW 3.5 mph - N/A   Clear
9:55 AM 80.6 °F 81.8 °F 62.6 °F 54% 30.11 in 10.0 mi SW 4.6 mph - N/A   Clear
10:15 AM 80.6 °F 81.5 °F 60.8 °F 51% 30.10 in 10.0 mi Calm Calm - N/A   Clear
10:35 AM 82.4 °F 82.9 °F 60.8 °F 48% 30.10 in 10.0 mi West 6.9 mph - N/A   Clear
10:55 AM 84.2 °F 83.8 °F 59.0 °F 42% 30.10 in 10.0 mi WSW 8.1 mph - N/A   Clear
11:15 AM 84.2 °F 84.4 °F 60.8 °F 45% 30.09 in 10.0 mi WSW 6.9 mph - N/A   Clear
11:35 AM 86.0 °F 86.1 °F 60.8 °F 43% 30.09 in 10.0 mi West 3.5 mph - N/A   Clear
11:55 AM 86.0 °F 86.1 °F 60.8 °F 43% 30.08 in 10.0 mi West 5.8 mph - N/A   Scattered Clouds
12:15 PM 86.0 °F 85.4 °F 59.0 °F 40% 30.07 in 10.0 mi West 5.8 mph - N/A   Mostly Cloudy
12:35 PM 86.0 °F 86.1 °F 60.8 °F 43% 30.06 in 10.0 mi WNW 4.6 mph - N/A   Mostly Cloudy
12:55 PM 86.0 °F 86.1 °F 60.8 °F 43% 30.06 in 10.0 mi West 8.1 mph - N/A   Scattered Clouds
1:15 PM 86.0 °F 86.1 °F 60.8 °F 43% 30.04 in 10.0 mi WNW 4.6 mph - N/A   Scattered Clouds
1:35 PM 86.0 °F 85.4 °F 59.0 °F 40% 30.03 in 10.0 mi West 5.8 mph - N/A   Scattered Clouds
1:55 PM 87.8 °F 87.1 °F 59.0 °F 38% 30.02 in 10.0 mi West 5.8 mph - N/A   Scattered Clouds
2:15 PM 87.8 °F 87.1 °F 59.0 °F 38% 30.01 in 10.0 mi WNW 4.6 mph - N/A   Scattered Clouds
2:35 PM 87.8 °F 87.1 °F 59.0 °F 38% 30.00 in 10.0 mi West 5.8 mph - N/A   Mostly Cloudy
2:55 PM 87.8 °F 87.1 °F 59.0 °F 38% 29.98 in 10.0 mi West 4.6 mph - N/A   Mostly Cloudy
3:15 PM 86.0 °F 85.4 °F 59.0 °F 40% 29.96 in 10.0 mi West 4.6 mph - N/A   Scattered Clouds
3:35 PM 87.8 °F 87.6 °F 60.8 °F 40% 29.96 in 10.0 mi WNW 5.8 mph - N/A   Scattered Clouds
3:55 PM 87.8 °F 86.5 °F 57.2 °F 35% 29.96 in 10.0 mi West 5.8 mph - N/A   Scattered Clouds
4:15 PM 87.8 °F 87.1 °F 59.0 °F 38% 29.95 in 10.0 mi NW 9.2 mph - N/A   Scattered Clouds
4:35 PM 87.8 °F 87.6 °F 60.8 °F 40% 29.95 in 10.0 mi North 6.9 mph - N/A   Scattered Clouds
4:55 PM 86.0 °F 87.3 °F 64.4 °F 48% 29.95 in 10.0 mi North 5.8 mph - N/A   Scattered Clouds
5:15 PM 84.2 °F 85.6 °F 64.4 °F 51% 29.95 in 10.0 mi NNE 3.5 mph - N/A   Scattered Clouds
5:35 PM 82.4 °F 83.9 °F 64.4 °F 54% 29.95 in 10.0 mi Calm Calm - N/A   Scattered Clouds
5:55 PM 80.6 °F 82.7 °F 66.2 °F 61% 29.95 in 10.0 mi Calm Calm - N/A   Clear
6:15 PM 80.6 °F 83.2 °F 68.0 °F 65% 29.97 in 10.0 mi WNW 13.8 mph 21.9 mph N/A Thunderstorm Scattered Clouds
6:35 PM 69.8 °F - 68.0 °F 94% 29.99 in 0.8 mi NW 8.1 mph 24.2 mph 0.51 in Rain , Thunderstorm Light Thunderstorms and Rain
6:55 PM 69.8 °F - 68.0 °F 94% 29.98 in 5.0 mi West 4.6 mph - 0.53 in Rain , Thunderstorm Light Thunderstorms and Rain
7:15 PM 69.8 °F - 68.0 °F 94% 29.99 in 4.0 mi NW 9.2 mph - 0.07 in Rain Heavy Rain
7:35 PM 69.8 °F - 68.0 °F 94% 29.98 in 7.0 mi East 4.6 mph - 0.09 in   Scattered Clouds
7:55 PM 69.8 °F - 68.0 °F 94% 29.98 in 10.0 mi Calm Calm - 0.09 in   Clear
8:15 PM 69.8 °F - 68.0 °F 94% 29.99 in 10.0 mi South 6.9 mph - N/A   Clear
8:35 PM 69.8 °F - 68.0 °F 94% 29.99 in 10.0 mi Calm Calm - N/A   Clear
8:55 PM 69.8 °F - 68.0 °F 94% 30.00 in 10.0 mi Calm Calm - N/A   Scattered Clouds
9:15 PM 69.8 °F - 68.0 °F 94% 30.00 in 7.0 mi Calm Calm - N/A   Mostly Cloudy
9:35 PM 69.8 °F - 68.0 °F 94% 30.00 in 7.0 mi Calm Calm - N/A   Mostly Cloudy
9:55 PM 69.8 °F - 68.0 °F 94% 30.00 in 5.0 mi Calm Calm - N/A   Mostly Cloudy
10:15 PM 69.8 °F - 68.0 °F 94% 29.99 in 10.0 mi Calm Calm - N/A   Scattered Clouds
10:35 PM 69.8 °F - 68.0 °F 94% 29.99 in 10.0 mi Calm Calm - N/A   Clear
10:55 PM 69.8 °F - 68.0 °F 94% 29.99 in 7.0 mi Calm Calm - N/A   Clear
11:15 PM 69.8 °F - 68.0 °F 94% 29.98 in 3.0 mi Calm Calm - N/A   Clear
11:35 PM 69.8 °F - 66.2 °F 88% 29.99 in 4.0 mi Calm Calm - N/A   Clear
11:55 PM 69.8 °F - 66.2 °F 88% 29.98 in 4.0 mi Calm Calm - N/A   Clear